[[{"header":{"parameterUnit":"m.s-1","parameterCategory":1,"la1":30.2991,"la2":30.254,"lo1":-89.0895,"lo2":-89.0444,"dy":0.0017,"dx":0.0017,"nx":28,"ny":28,"refTime":"2024-03-31T21:00:00:Z","depth":0,"parameterNumber":2,"parameterNumberName":"U-component_of_WINDS"},"data":[0,0,0,0,0,0,0,0,0,0,0,0,0,0,0,0,0,0,0,0,0,0,0,0,0,0,0,0,0,0,0,0,0,0,0,0,0,0,0,0,0,0,0,0,0,0,0,0,0,0,0,0,0,0,0,0,0,0,-2.0032,-2.0032,0,-2.0018,-2.0018,-2.0018,-1.9981,-1.998,-1.9979,-1.9979,-1.9965,-1.9965,-1.9966,0,0,0,0,0,0,0,0,0,0,0,0,0,-2.0028,-2.0028,-2.0032,-2.0032,-2.0032,-2.0018,-2.0018,-2.0018,-1.9981,-1.998,-1.9979,-1.9978,-1.9965,-1.9965,-1.9966,0,0,0,0,0,0,0,0,0,0,0,0,0,-2.0024,-2.0028,-2.0032,-2.0012,-2.001,-2.0018,-2.0018,-2.0018,-1.9981,-1.998,-1.9979,-1.9978,-1.9965,-1.9965,-1.9966,-1.9993,0,0,-1.9968,-1.9968,0,0,0,0,0,0,0,0,-2.0024,-2.0024,-2.0015,-2.0013,-2.0011,-2.0,-2.0012,-2.0009,-1.9982,-1.9992,-1.9979,-1.9977,-1.9978,-1.9977,-1.9977,-1.9992,-1.9992,-1.9968,-1.9968,-1.9968,-1.9968,0,0,0,0,0,0,0,-2.0024,-2.0024,-2.0027,-2.0015,-2.0012,-2.0004,-2.0002,-2.0011,-1.9992,-1.9991,-1.9988,-1.9987,-1.9976,-1.9977,-1.9977,-1.9992,-1.9968,-1.9968,-1.9968,-1.9969,-2.0029,-2.003,0,0,0,0,0,0,-2.0027,-2.0025,-2.0027,-2.0026,-2.0015,-2.0005,-2.0003,-2.0005,-1.9992,-1.9988,-1.9988,-1.9986,-1.9976,-1.9976,-1.9976,-2.0006,-1.9968,-1.9969,-1.9969,-2.0027,-2.0029,-2.003,0,0,0,0,0,0,-2.0027,-2.0028,-2.0028,-2.0025,-2.0024,-2.0006,-2.0009,-2.0005,-2.0005,-1.9989,-1.9986,-1.9992,-1.9975,-1.9975,-1.9989,-2.0005,-1.9969,-1.9969,-2.0026,-2.0028,-2.003,-2.0068,0,0,0,0,0,0,-2.0027,-2.0028,-2.0038,-2.0025,-2.0024,-2.004,-2.001,-2.0006,-2.0006,-2.0003,-1.9992,-1.9989,-1.9974,-1.9988,-1.999,-2.0005,-1.997,-2.0024,-2.0027,-2.0029,-2.0065,-2.007,-2.0075,0,0,0,0,0,-2.0027,-2.0049,-2.0038,-2.0039,-2.0036,-2.0041,-2.0041,-2.0024,-2.0008,-2.0017,-2.0008,-1.9989,-2.0004,-1.999,-1.9991,-2.0007,-2.0023,-2.0026,-2.0029,-2.0062,-2.0069,-2.0075,0,0,0,0,0,0,-2.0064,-2.0047,-2.0035,-2.0053,-2.0049,-2.0035,-2.0047,-2.0032,-2.0032,-2.0028,-2.0007,-2.0005,-2.0022,-2.0016,-2.0001,-2.0033,-2.0011,-2.0014,-2.0036,-2.0042,-2.0048,-2.0048,-1.997,0,0,0,0,0,-2.0074,-2.008,-2.0065,-2.0083,-2.0081,-2.0065,-2.0066,-2.0054,-2.0048,-2.0046,-2.0037,-2.0033,-2.0037,-2.004,-2.0042,-2.0065,-2.0061,-2.0076,-2.0082,-2.0086,-2.0089,-2.01,-2.0106,-2.004,-2.004,-2.004,0,0,-2.0095,-2.0087,-2.0091,-2.009,-2.0085,-2.0091,-2.0063,-2.0071,-2.0076,-2.0048,-2.006,-2.0053,-2.0048,-2.0066,-2.0073,-2.0062,-2.0107,-2.009,-2.0094,-2.0093,-2.0103,-2.011,-2.0115,-2.0042,-2.0041,-2.0041,0,0,-2.0136,-2.0131,-2.0144,-2.0141,-2.0134,-2.0123,-2.0127,-2.0116,-2.011,-2.0122,-2.0101,-2.0107,-2.0114,-2.011,-2.0109,-2.0151,-2.0134,-2.0153,-2.018,-2.0191,-2.0197,-2.0201,-2.0215,-2.0221,-2.0156,-2.0156,-2.0156,0,-2.0163,-2.0171,-2.0154,-2.0163,-2.0163,-2.0138,-2.0152,-2.0149,-2.0144,-2.0145,-2.0132,-2.014,-2.0135,-2.0152,-2.0162,-2.0163,-2.0166,-2.0153,-2.0197,-2.0202,-2.0206,-2.0219,-2.0224,-2.0158,-2.0158,-2.0158,-2.0158,0,-2.0204,-2.0211,-2.0223,-2.0218,-2.022,-2.0232,-2.0216,-2.022,-2.0208,-2.0198,-2.0211,-2.0204,-2.0205,-2.0208,-2.0196,-2.0224,-2.0216,-2.0201,-2.0178,-2.0214,-2.0226,-2.0231,-2.0161,-2.0161,-2.016,-2.0159,0,0,-2.0266,-2.0252,-2.0257,-2.0254,-2.0246,-2.0251,-2.0262,-2.0263,-2.0266,-2.0264,-2.0273,-2.028,-2.0266,-2.0265,-2.0253,-2.0263,-2.0296,-2.0246,-2.0246,-2.0254,-2.0325,-2.0335,-2.0341,-2.0285,-2.0286,-2.0287,-2.0325,0,-2.0304,-2.0321,-2.0306,-2.0326,-2.0332,-2.031,-2.0319,-2.0316,-2.0308,-2.0312,-2.0304,-2.0308,-2.029,-2.0289,-2.0299,-2.029,-2.0309,-2.0287,-2.0292,-2.0293,-2.0292,-2.0347,-2.0358,-2.0394,-2.0329,-2.033,-2.0331,0,-2.0349,-2.0349,-2.037,-2.0361,-2.0362,-2.0371,-2.0371,-2.0375,-2.0371,-2.0365,-2.0365,-2.035,-2.0361,-2.034,-2.0354,-2.0339,-2.0341,-2.0337,-2.0338,-2.0337,-2.0313,-2.0346,-2.0405,-2.041,-2.0338,-2.0337,-2.0337,0,-2.0391,-2.0396,-2.0409,-2.0408,-2.0398,-2.0404,-2.04,-2.0395,-2.0397,-2.0397,-2.0397,-2.0399,-2.04,-2.0402,-2.0388,-2.0374,-2.0404,-2.0382,-2.0399,-2.0399,-2.0404,-2.0404,-2.0463,-2.0408,-2.0408,-2.0408,-2.0408,0,-2.0433,-2.0446,-2.0427,-2.0435,-2.0449,-2.0433,-2.0448,-2.0442,-2.0438,-2.0444,-2.0426,-2.0433,-2.0415,-2.042,-2.041,-2.0423,-2.0424,-2.0419,-2.0416,-2.0419,-2.042,-2.0419,-2.0415,-2.041,-2.0409,-2.0409,-2.0409,0,-2.0481,-2.0468,-2.0481,-2.0471,-2.0469,-2.048,-2.0471,-2.0478,-2.047,-2.0478,-2.048,-2.0467,-2.0472,-2.0459,-2.0462,-2.0455,-2.0474,-2.0468,-2.0475,-2.0472,-2.0489,-2.0488,-2.0549,-2.0556,-2.0498,-2.0499,-2.0499,0,-2.0508,-2.0517,-2.0508,-2.0511,-2.0508,-2.0514,-2.0515,-2.05,-2.0502,-2.0499,-2.0507,-2.051,-2.0512,-2.0521,-2.0512,-2.0515,-2.0507,-2.0529,-2.0508,-2.0511,-2.0506,-2.0505,-2.0506,-2.0533,-2.0533,-2.0534,-2.0534,0,-2.0557,-2.055,-2.0553,-2.0554,-2.0556,-2.0556,-2.0555,-2.0559,-2.0543,-2.0547,-2.0551,-2.0553,-2.0557,-2.056,-2.0561,-2.0557,-2.0543,-2.0542,-2.0545,-2.0548,-2.0552,-2.0549,-2.0485,-2.054,-2.0539,-2.0539,-2.0538,-2.0538,-2.0594,-2.0601,-2.0596,-2.06,-2.0598,-2.0597,-2.0603,-2.0596,-2.06,-2.0601,-2.0592,-2.0599,-2.0596,-2.0595,-2.0593,-2.0599,-2.0589,-2.0595,-2.0596,-2.0597,-2.0599,-2.0553,-2.0599,-2.0599,-2.0599,-2.0599,-2.0598,0,-2.0641,-2.0637,-2.064,-2.0639,-2.0642,-2.063,-2.0628,-2.0631,-2.0637,-2.0635,-2.0638,-2.0644,-2.0647,-2.064,-2.0642,-2.0648,-2.0641,-2.0649,-2.0647,-2.0647,-2.0608,-2.0604,-2.0654,-2.0654,-2.0654,-2.0654,-2.0654,-2.0654,-2.0665,-2.0677,-2.0671,-2.0681,-2.0677,-2.0683,-2.0684,-2.0683,-2.0681,-2.0689,-2.0692,-2.0687,-2.0682,-2.0685,-2.0688,-2.0685,-2.0686,-2.0696,-2.0691,-2.0655,-2.065,-2.0644,-2.064,-2.0697,-2.0697,-2.0729,-2.0729,-2.0729]},{"header":{"parameterUnit":"m.s-1","parameterCategory":1,"la1":30.2991,"la2":30.254,"lo1":-89.0895,"lo2":-89.0444,"dy":0.0017,"dx":0.0017,"nx":28,"ny":28,"refTime":"2024-03-31T21:00:00:Z","depth":0,"parameterNumber":3,"parameterNumberName":"V-component_of_WINDS"},"data":[0,0,0,0,0,0,0,0,0,0,0,0,0,0,0,0,0,0,0,0,0,0,0,0,0,0,0,0,0,0,0,0,0,0,0,0,0,0,0,0,0,0,0,0,0,0,0,0,0,0,0,0,0,0,0,0,0,0,3.5416,3.5415,0,3.5352,3.5351,3.535,3.5347,3.5348,3.5349,3.535,3.5281,3.5278,3.5276,0,0,0,0,0,0,0,0,0,0,0,0,0,3.5537,3.5534,3.5416,3.5415,3.5414,3.5352,3.5351,3.535,3.5347,3.5348,3.5349,3.535,3.5282,3.5279,3.5276,0,0,0,0,0,0,0,0,0,0,0,0,0,3.5479,3.5534,3.5416,3.5406,3.5404,3.5352,3.5351,3.535,3.5347,3.5348,3.5349,3.535,3.5283,3.5279,3.5275,3.5228,0,0,3.5263,3.5262,0,0,0,0,0,0,0,0,3.5483,3.5475,3.5408,3.5406,3.5404,3.5359,3.5368,3.5309,3.5347,3.5369,3.535,3.5351,3.5306,3.53,3.5285,3.5225,3.5222,3.5263,3.5261,3.5259,3.5258,0,0,0,0,0,0,0,3.5487,3.5478,3.539,3.5407,3.5405,3.5404,3.5397,3.5357,3.5331,3.5367,3.5366,3.5359,3.5305,3.5289,3.5284,3.5221,3.5263,3.526,3.5257,3.5256,3.5124,3.5123,0,0,0,0,0,0,3.5493,3.5481,3.5393,3.5389,3.5447,3.5401,3.5393,3.5372,3.5332,3.5327,3.5358,3.5359,3.5295,3.5288,3.5281,3.5227,3.5259,3.5256,3.5253,3.5126,3.5124,3.5123,0,0,0,0,0,0,3.5495,3.5485,3.5395,3.5435,3.5423,3.5398,3.5374,3.537,3.5354,3.5325,3.5321,3.5347,3.5296,3.5287,3.5243,3.5224,3.5254,3.525,3.5127,3.5125,3.5123,3.5116,0,0,0,0,0,0,3.5499,3.5486,3.5467,3.5434,3.5421,3.5358,3.5373,3.5368,3.5348,3.5349,3.5313,3.5308,3.5296,3.5249,3.5239,3.5219,3.5247,3.5129,3.5126,3.5124,3.5117,3.5114,3.5111,0,0,0,0,0,3.5503,3.5466,3.5467,3.5456,3.5398,3.5356,3.5349,3.5336,3.5347,3.5328,3.5311,3.5309,3.5228,3.5244,3.5233,3.5212,3.513,3.5127,3.5124,3.5119,3.5114,3.5111,0,0,0,0,0,0,3.5495,3.5461,3.5461,3.5413,3.5388,3.5356,3.5332,3.5331,3.5301,3.5303,3.5288,3.528,3.5237,3.522,3.5239,3.5167,3.518,3.5175,3.518,3.5175,3.5172,3.5177,3.5244,0,0,0,0,0,3.5489,3.5458,3.543,3.539,3.5378,3.5357,3.5339,3.5332,3.5305,3.5294,3.5272,3.5246,3.5215,3.5194,3.5163,3.5115,3.5109,3.5096,3.5093,3.509,3.5086,3.5063,3.5058,3.5114,3.5114,3.5114,0,0,3.5473,3.5451,3.5432,3.5388,3.5368,3.5337,3.5348,3.5314,3.5292,3.5288,3.5246,3.523,3.52,3.5155,3.5134,3.5139,3.5069,3.5087,3.5085,3.5082,3.5059,3.5054,3.5049,3.5112,3.5112,3.5113,0,0,3.5429,3.5409,3.5375,3.5355,3.5326,3.5313,3.5306,3.5275,3.5265,3.5223,3.5221,3.5194,3.5139,3.5119,3.5102,3.5056,3.5055,3.5046,3.5028,3.5006,3.5002,3.4998,3.4983,3.4978,3.5042,3.5042,3.5042,0,3.5413,3.5368,3.5357,3.5325,3.5307,3.5304,3.5271,3.5252,3.5213,3.5201,3.5208,3.5143,3.5122,3.5074,3.5064,3.5049,3.504,3.505,3.5003,3.4999,3.4995,3.4982,3.4976,3.5041,3.5041,3.5042,3.5042,0,3.5351,3.532,3.5296,3.5262,3.5241,3.5207,3.5193,3.5173,3.5169,3.5156,3.5115,3.5091,3.5057,3.5045,3.5039,3.4997,3.5002,3.5006,3.5019,3.4989,3.4976,3.4971,3.504,3.5041,3.5041,3.5041,0,0,3.5297,3.5261,3.5253,3.5239,3.5208,3.5184,3.5152,3.5121,3.5106,3.508,3.5054,3.5011,3.5016,3.4996,3.4988,3.4969,3.4938,3.4976,3.4975,3.4971,3.4893,3.4891,3.4885,3.4937,3.4936,3.4935,3.4896,0,3.5252,3.5196,3.5188,3.5139,3.5112,3.5112,3.5084,3.5063,3.5051,3.5027,3.5013,3.4984,3.4991,3.498,3.4961,3.4945,3.4922,3.4948,3.4914,3.4912,3.4922,3.4877,3.4874,3.4838,3.4891,3.489,3.4889,0,3.519,3.5167,3.5116,3.5093,3.5081,3.5057,3.503,3.5006,3.4983,3.4976,3.4956,3.4952,3.4921,3.4936,3.4893,3.4911,3.4897,3.4888,3.4886,3.4882,3.4899,3.4874,3.4826,3.4821,3.4881,3.4881,3.4882,0,3.5159,3.5114,3.5079,3.5067,3.5039,3.5022,3.501,3.4988,3.4971,3.4947,3.4937,3.4909,3.4894,3.4873,3.4863,3.4874,3.4822,3.4835,3.4816,3.4816,3.4804,3.4805,3.4755,3.4794,3.4794,3.4794,3.4794,0,3.511,3.5079,3.5066,3.5044,3.5011,3.5002,3.4969,3.4957,3.4939,3.4915,3.4913,3.4891,3.4878,3.4854,3.4846,3.4814,3.4806,3.48,3.4799,3.4801,3.4802,3.4791,3.4794,3.4793,3.4793,3.4793,3.4794,0,3.5069,3.5058,3.502,3.4998,3.4992,3.4969,3.495,3.493,3.492,3.4891,3.4883,3.4867,3.484,3.4828,3.4793,3.4788,3.4752,3.4751,3.476,3.4759,3.4742,3.4744,3.4683,3.4676,3.4719,3.4719,3.4718,0,3.5038,3.5015,3.4992,3.4977,3.4965,3.494,3.4925,3.4916,3.49,3.4875,3.4858,3.4831,3.4809,3.4766,3.4751,3.4726,3.4725,3.4706,3.4721,3.4726,3.4727,3.4729,3.4728,3.4703,3.4703,3.4702,3.4702,0,3.4985,3.4982,3.496,3.4937,3.4919,3.4899,3.4881,3.4869,3.4858,3.484,3.4813,3.4796,3.4764,3.4738,3.4713,3.47,3.47,3.4698,3.4692,3.4695,3.4702,3.47,3.4753,3.4699,3.4699,3.4699,3.4699,3.47,3.4949,3.493,3.4913,3.4889,3.4875,3.4858,3.484,3.4829,3.4807,3.4781,3.4777,3.475,3.4731,3.4697,3.4684,3.4663,3.4667,3.4659,3.4657,3.4655,3.4655,3.4705,3.4658,3.4658,3.4658,3.4658,3.4658,0,3.4898,3.4888,3.4866,3.4842,3.4824,3.4827,3.4808,3.4793,3.4769,3.4752,3.4732,3.4703,3.4679,3.4664,3.4641,3.4627,3.4626,3.4621,3.4622,3.462,3.4651,3.4659,3.4622,3.4622,3.4622,3.4622,3.4622,3.4622,3.4869,3.4839,3.4834,3.4798,3.4787,3.4762,3.4751,3.4736,3.4723,3.4692,3.4673,3.4664,3.4649,3.4625,3.4604,3.46,3.4592,3.4587,3.4583,3.4613,3.4617,3.462,3.4628,3.4585,3.4585,3.4554,3.4553,3.4553]}]]